W5TTY Weather Reports


Display with metric or nautical units.
time (UTC)temp
F
wind
direction
speed
MPH
gust
MPH
rain 1hr
in
rain 24hr
in
rain mn
in
humidity
%
barometer
mb
20260509031842 74 97 3.0 7.0 0.00 0.38 0.38 87 1009.0
20260509031319 74 109 4.0 9.0 0.00 0.38 0.38 87 1009.0
20260509030831 74 135 4.0 10.0 0.00 0.38 0.38 87 1009.0
20260509030337 74 141 4.0 10.0 0.00 0.38 0.38 87 1008.9
20260509025823 74 126 3.0 9.0 0.00 0.38 0.38 87 1008.9
20260509025327 74 133 4.0 9.0 0.00 0.38 0.38 87 1008.8
20260509024829 74 144 4.0 9.0 0.00 0.38 0.38 87 1008.7
20260509024335 74 131 4.0 8.0 0.00 0.38 0.38 87 1008.7
20260509023822 74 161 2.0 6.0 0.00 0.38 0.38 87 1008.8
20260509023322 74 153 2.0 5.0 0.00 0.38 0.38 87 1008.8
20260509022828 74 151 2.0 4.0 0.00 0.38 0.38 87 1009.0
20260509022327 74 144 1.0 3.0 0.00 0.38 0.38 87 1008.9
20260509021843 75 144 1.0 3.0 0.00 0.38 0.38 87 1008.9
20260509021346 75 144 1.0 3.0 0.00 0.38 0.38 86 1008.8
20260509020828 75 145 2.0 5.0 0.00 0.38 0.38 86 1008.7
20260509020329 75 145 2.0 8.0 0.00 0.38 0.38 87 1008.6
20260509015832 75 163 2.0 8.0 0.00 0.38 0.38 87 1008.7
20260509015337 75 140 3.0 8.0 0.00 0.38 0.38 87 1008.7
20260509014849 75 139 3.0 8.0 0.00 0.38 0.38 87 1008.6
20260509014334 75 153 3.0 8.0 0.00 0.38 0.38 86 1008.6
20260509013820 75 142 4.0 8.0 0.00 0.38 0.38 86 1008.6
20260509013327 75 128 4.0 8.0 0.00 0.38 0.38 86 1008.6
20260509012829 75 130 3.0 7.0 0.00 0.38 0.38 86 1008.7
20260509012355 76 145 3.0 7.0 0.00 0.38 0.38 87 1008.7
20260509011839 76 136 3.0 8.0 0.00 0.38 0.38 87 1008.6
20260509011345 76 105 3.0 8.0 0.00 0.38 0.38 87 1008.6
20260509010826 76 127 2.0 7.0 0.00 0.38 0.38 87 1008.5
20260509010334 76 126 3.0 7.0 0.00 0.38 0.38 87 1008.4
20260509005819 76 121 3.0 9.0 0.00 0.38 0.38 86 1008.3
20260509005319 76 113 5.0 9.0 0.00 0.38 0.38 86 1008.3
20260509004830 76 134 5.0 8.0 0.00 0.38 0.38 86 1008.5
20260509004334 76 116 4.0 8.0 0.00 0.38 0.38 87 1008.5
20260509003821 76 101 4.0 7.0 0.00 0.38 0.38 87 1008.6
20260509003327 77 97 2.0 6.0 0.00 0.38 0.38 87 1008.6
20260509002828 77 90 2.0 7.0 0.00 0.38 0.38 87 1008.5
20260509002330 77 99 3.0 7.0 0.00 0.38 0.38 87 1008.6
20260509001837 77 88 3.0 9.0 0.00 0.38 0.38 87 1008.5
20260509001321 77 111 4.0 9.0 0.00 0.38 0.38 87 1008.6
20260509000835 77 132 4.0 9.0 0.00 0.38 0.38 87 1008.6
20260509000340 77 111 5.0 8.0 0.00 0.38 0.38 87 1008.6
20260508235845 77 132 4.0 8.0 0.00 0.38 0.38 87 1008.6
20260508235326 77 112 3.0 10.0 0.00 0.38 0.38 87 1008.5
20260508234832 77 86 2.0 10.0 0.00 0.38 0.38 87 1008.6
20260508234358 77 127 3.0 9.0 0.00 0.38 0.38 87 1008.6
20260508233849 77 111 5.0 9.0 0.00 0.38 0.38 87 1008.7
20260508233336 78 70 4.0 9.0 0.00 0.38 0.38 87 1008.6
20260508232843 78 118 4.0 9.0 0.00 0.38 0.38 87 1008.5
20260508232349 78 49 5.0 10.0 0.00 0.38 0.38 87 1008.5
20260508231829 78 63 4.0 10.0 0.00 0.38 0.38 87 1008.5
20260508231335 78 68 5.0 9.0 0.00 0.38 0.38 87 1008.5
20260508230819 78 79 5.0 8.0 0.00 0.38 0.38 87 1008.6
20260508230350 78 94 3.0 11.0 0.00 0.38 0.38 87 1008.7
20260508225849 78 88 7.0 11.0 0.00 0.38 0.38 87 1008.6
20260508225338 78 86 7.0 11.0 0.00 0.38 0.38 88 1008.6
20260508224844 78 78 3.0 6.0 0.00 0.38 0.38 87 1008.7
20260508224325 78 73 4.0 7.0 0.00 0.38 0.38 87 1008.8
20260508223829 78 51 3.0 7.0 0.00 0.38 0.38 88 1008.8
20260508223336 78 109 2.0 7.0 0.00 0.38 0.38 88 1008.9
20260508222822 78 99 3.0 6.0 0.00 0.38 0.38 88 1008.8
20260508222355 78 93 3.0 6.0 0.00 0.38 0.38 88 1008.7
20260508221840 78 99 3.0 4.0 0.00 0.38 0.38 88 1008.8
20260508221347 78 105 2.0 4.0 0.00 0.38 0.38 88 1008.9
20260508220830 78 106 0.0 1.0 0.00 0.38 0.38 88 1008.9
20260508220320 78 106 0.0 3.0 0.00 0.38 0.38 88 1009.0
20260508215850 78 106 1.0 3.0 0.00 0.38 0.38 88 1009.0
20260508215351 78 106 1.0 4.0 0.00 0.38 0.38 88 1009.1
20260508214836 78 96 2.0 8.0 0.00 0.38 0.38 88 1009.0
20260508214323 78 126 5.0 8.0 0.00 0.38 0.38 88 1009.0
20260508213857 78 148 3.0 7.0 0.00 0.38 0.38 89 1009.0
20260508213342 77 142 1.0 6.0 0.00 0.38 0.38 89 1009.0
20260508212849 77 187 3.0 6.0 0.00 0.38 0.38 89 1009.0
20260508212329 77 82 3.0 6.0 0.00 0.38 0.38 89 1009.1
20260508211900 77 76 2.0 5.0 0.00 0.38 0.38 89 1009.2
20260508211345 76 101 1.0 4.0 0.00 0.38 0.38 89 1009.3
20260508210826 77 115 2.0 7.0 0.00 0.38 0.38 89 1009.4
20260508210357 77 105 3.0 7.0 0.00 0.38 0.38 88 1009.6
20260508205845 77 85 2.0 4.0 0.00 0.38 0.38 89 1009.5
20260508205325 76 89 2.0 6.0 0.00 0.38 0.38 89 1009.6
20260508204827 76 84 1.0 6.0 0.00 0.38 0.38 89 1009.7
20260508204329 76 75 3.0 5.0 0.00 0.38 0.38 89 1009.7
20260508203837 76 76 4.0 9.0 0.00 0.38 0.38 89 1009.8
20260508203347 76 84 7.0 9.0 0.00 0.38 0.38 89 1009.9
20260508202831 76 67 2.0 5.0 0.00 0.38 0.38 89 1009.9
20260508202335 76 69 2.0 7.0 0.00 0.38 0.38 89 1010.1
20260508201823 76 84 5.0 9.0 0.00 0.38 0.38 89 1010.1
20260508201326 76 82 3.0 9.0 0.00 0.38 0.38 89 1010.1
20260508200857 76 44 1.0 7.0 0.00 0.38 0.38 89 1010.1
20260508200343 75 53 3.0 7.0 0.00 0.38 0.38 89 1010.2
20260508195828 75 94 2.0 6.0 0.00 0.38 0.38 89 1010.2
20260508195325 75 49 3.0 8.0 0.00 0.38 0.38 89 1010.3
20260508194829 75 5 4.0 8.0 0.00 0.38 0.38 89 1010.3
20260508194336 75 63 4.0 9.0 0.00 0.38 0.38 89 1010.4
20260508193837 75 61 6.0 9.0 0.00 0.38 0.38 89 1010.4
20260508193318 74 94 4.0 7.0 0.00 0.38 0.38 89 1010.5
20260508192831 74 61 2.0 6.0 0.00 0.38 0.38 89 1010.7
20260508192354 74 46 3.0 7.0 0.00 0.38 0.38 89 1010.7
20260508191819 74 94 4.0 6.0 0.00 0.38 0.38 89 1010.8
20260508191321 73 54 1.0 5.0 0.00 0.38 0.38 89 1010.8
20260508190832 73 56 3.0 5.0 0.00 0.38 0.38 89 1011.0
20260508190337 73 118 3.0 6.0 0.00 0.38 0.38 89 1011.1
20260508185824 72 102 2.0 4.0 0.00 0.38 0.38 89 1011.3
20260508185327 72 101 2.0 5.0 0.00 0.38 0.38 89 1011.3
20260508184829 72 101 3.0 5.0 0.00 0.38 0.38 89 1011.4
20260508184332 72 82 3.0 5.0 0.00 0.38 0.38 89 1011.4
20260508183830 72 79 2.0 5.0 0.00 0.38 0.38 89 1011.5
20260508183335 72 167 3.0 6.0 0.00 0.38 0.38 89 1011.5
20260508182819 72 86 3.0 6.0 0.00 0.38 0.38 89 1011.5
20260508182352 72 65 4.0 6.0 0.00 0.38 0.38 89 1011.6
20260508181832 72 71 2.0 6.0 0.00 0.38 0.38 89 1011.6
20260508181338 72 77 3.0 8.0 0.00 0.38 0.38 89 1011.6
20260508180839 71 84 4.0 6.0 0.00 0.38 0.38 89 1011.7
20260508180331 71 109 2.0 7.0 0.00 0.38 0.38 89 1011.7
20260508175837 71 128 4.0 7.0 0.00 0.38 0.38 89 1011.8
20260508175340 71 67 2.0 6.0 0.00 0.38 0.38 89 1011.9
20260508174822 70 54 2.0 6.0 0.00 0.38 0.38 89 1011.9
20260508174354 70 38 2.0 6.0 0.00 0.38 0.38 89 1012.0
20260508173818 70 19 4.0 6.0 0.00 0.38 0.38 89 1012.1
20260508173322 70 12 3.0 6.0 0.00 0.38 0.38 89 1012.2
20260508172826 70 54 4.0 6.0 0.00 0.38 0.38 89 1012.1
20260508172331 70 53 2.0 8.0 0.00 0.38 0.38 89 1012.1
20260508171836 69 35 3.0 8.0 0.00 0.38 0.38 89 1012.1
20260508171317 69 57 2.0 8.0 0.00 0.38 0.38 89 1012.2
20260508170849 68 5 4.0 8.0 0.00 0.38 0.38 89 1012.2
20260508170331 68 45 4.0 9.0 0.00 0.38 0.38 89 1012.3
20260508165838 67 58 3.0 9.0 0.00 0.38 0.38 89 1012.3
20260508165321 67 61 4.0 8.0 0.00 0.38 0.38 89 1012.4
20260508164826 66 40 3.0 6.0 0.00 0.38 0.38 89 1012.4
20260508164358 66 47 3.0 8.0 0.00 0.38 0.38 89 1012.5
20260508163842 66 67 3.0 8.0 0.00 0.38 0.38 89 1012.6
20260508163327 66 49 3.0 5.0 0.00 0.38 0.38 88 1012.8
20260508162831 66 65 2.0 6.0 0.00 0.38 0.38 88 1012.8
20260508162329 66 88 3.0 5.0 0.00 0.38 0.38 88 1012.9
20260508161836 65 58 4.0 5.0 0.00 0.38 0.38 88 1013.0
20260508161323 65 40 1.0 4.0 0.00 0.38 0.38 88 1013.0
20260508160850 65 67 3.0 6.0 0.00 0.38 0.38 88 1012.9
20260508160317 65 69 3.0 6.0 0.00 0.38 0.38 88 1013.1
20260508155821 65 54 2.0 8.0 0.00 0.38 0.38 88 1013.0
20260508155331 65 78 3.0 8.0 0.00 0.38 0.38 88 1013.1
20260508154837 64 32 5.0 8.0 0.00 0.38 0.38 88 1013.1
20260508154343 64 77 4.0 9.0 0.00 0.38 0.38 88 1013.1
20260508153824 64 79 5.0 9.0 0.00 0.38 0.38 88 1013.4
20260508153357 64 96 5.0 9.0 0.00 0.38 0.38 88 1013.4
20260508152843 64 100 4.0 9.0 0.00 0.38 0.38 88 1013.3
20260508152324 64 90 4.0 9.0 0.00 0.38 0.38 88 1013.4
20260508151834 64 96 4.0 8.0 0.00 0.38 0.38 88 1013.4
20260508151338 64 107 3.0 6.0 0.00 0.38 0.38 88 1013.5
20260508150823 63 73 1.0 7.0 0.00 0.38 0.38 87 1013.6
20260508150329 63 78 4.0 7.0 0.00 0.38 0.38 87 1013.6
20260508145905 63 72 4.0 8.0 0.00 0.38 0.38 87 1013.6
20260508145346 63 84 4.0 8.0 0.00 0.38 0.38 87 1013.6
20260508144831 63 61 3.0 7.0 0.00 0.38 0.38 87 1013.5
20260508144338 63 55 3.0 9.0 0.00 0.38 0.38 87 1013.5
20260508143826 63 80 4.0 8.0 0.00 0.38 0.38 87 1013.6
20260508143331 63 86 3.0 8.0 0.00 0.38 0.38 87 1013.5
20260508142820 63 90 4.0 8.0 0.00 0.38 0.38 87 1013.6
20260508142326 63 88 4.0 6.0 0.00 0.38 0.38 87 1013.7
20260508141852 63 84 3.0 8.0 0.00 0.38 0.38 87 1013.7
20260508141350 63 113 5.0 8.0 0.00 0.38 0.38 87 1013.6
20260508140830 63 81 3.0 5.0 0.00 0.38 0.38 87 1013.6
20260508140339 63 72 4.0 6.0 0.00 0.38 0.38 87 1013.5
20260508135825 63 101 3.0 8.0 0.00 0.38 0.38 87 1013.6
20260508135329 63 99 3.0 8.0 0.00 0.38 0.38 86 1013.4
20260508134837 63 74 3.0 8.0 0.00 0.38 0.38 86 1013.4
20260508134318 63 68 5.0 8.0 0.00 0.38 0.38 86 1013.3
20260508133851 63 65 2.0 6.0 0.00 0.38 0.38 87 1013.5
20260508133353 63 64 4.0 6.0 0.00 0.38 0.38 87 1013.5
20260508132841 63 106 2.0 8.0 0.00 0.38 0.38 86 1013.7
20260508132318 63 92 4.0 8.0 0.00 0.38 0.38 87 1013.7
20260508131829 63 100 3.0 6.0 0.00 0.38 0.38 86 1013.5
20260508131355 63 130 1.0 8.0 0.00 0.38 0.38 86 1013.5
20260508130820 63 102 4.0 8.0 0.00 0.38 0.38 86 1013.5
20260508130321 62 101 3.0 8.0 0.00 0.38 0.38 86 1013.3
20260508125825 62 103 4.0 8.0 0.00 0.38 0.38 86 1013.2
20260508125328 62 134 4.0 9.0 0.00 0.38 0.38 86 1013.2
20260508124833 62 126 5.0 9.0 0.00 0.38 0.38 86 1013.3
20260508124317 62 86 3.0 9.0 0.00 0.38 0.38 86 1013.3
20260508123829 62 98 5.0 9.0 0.00 0.38 0.38 86 1013.4
20260508123332 62 121 4.0 9.0 0.00 0.38 0.38 86 1013.7
20260508122838 62 99 5.0 8.0 0.00 0.38 0.38 86 1013.8
20260508122322 62 94 4.0 8.0 0.00 0.38 0.38 86 1013.8
20260508121824 61 71 3.0 8.0 0.00 0.38 0.38 86 1014.0
20260508121328 61 65 3.0 8.0 0.00 0.38 0.38 86 1014.0
20260508120902 61 67 1.0 6.0 0.00 0.38 0.38 86 1014.2
20260508120349 61 42 2.0 3.0 0.02 0.38 0.38 86 1014.1
20260508115835 61 38 2.0 6.0 0.15 0.38 0.38 85 1014.1
20260508115319 61 31 3.0 6.0 0.21 0.38 0.38 85 1014.1
20260508114819 61 41 4.0 9.0 0.35 0.38 0.38 85 1013.9
20260508114324 61 78 5.0 10.0 0.38 0.38 0.38 85 1013.8
20260508113836 61 78 7.0 10.0 0.38 0.38 0.38 85 1013.8
20260508113344 61 52 5.0 9.0 0.38 0.38 0.38 85 1013.8
20260508112828 61 63 4.0 9.0 0.38 0.38 0.38 85 1013.8
20260508112336 61 42 5.0 9.0 0.38 0.38 0.38 85 1013.9
20260508111823 62 36 4.0 9.0 0.38 0.38 0.38 85 1014.0
20260508111324 62 55 4.0 9.0 0.38 0.38 0.38 85 1013.9
20260508110830 62 33 4.0 8.0 0.38 0.38 0.38 85 1014.0
20260508032337 62 20 4.0 9.0 0.00 0.00 0.00 81 1014.0